Home > Weather > Daly City > Past weeks

Flag for U.S.A. Weather for the Past 2 Weeks in Daly City, California, U.S.A.

Now
52 °F

Clear.


Feels Like: 52 °F
Forecast: 51 / 68 °F
Wind: 3 mph from Southwest

Location: San Francisco International Airport

Current Time: Feb 8, 2016 at 5:02:27 AM

Latest Report: Feb 8, 2016 at 3:56 AM


Visibility: 10 mi

Pressure: 30.21 "Hg

Humidity: 77%

Dew point: 45 °F

Location of Daly CityLocation

Historic Weather in Daly City — Graph

°F

Daly City Temperature Yesterday

Maximum temperature yesterday: 67 °F (at 1:56 PM)
Minimum temperature yesterday: 48 °F (at 6:56 AM)
Average temperature yesterday: 58 °F

High & Low Weather Summary for the Past Weeks

 TemperatureHumidityPressure
High67 °F (Feb 7, 1:56 PM)100% (Jan 26, 8:56 AM)30.47 "Hg (Jan 26, 8:56 AM)
Low43 °F (Feb 3, 3:56 AM)38% (Feb 1, 10:56 AM)29.78 "Hg (Jan 31, 1:56 PM)
Average53 °F75%30.24 "Hg
* Reported Jan 24 3:56 AM — Feb 8 3:56 AM, Daly City, Weather by CustomWeather, © 2016

Note: Actual official high and low records may vary slightly from our data, if they occured in-between our weather recording intervals... More about our weather records

Advertising

Daly City Weather History for the Previous 24 Hours

 ConditionsComfort  
Time TempWeatherWind HumidityBarometerVisibility
3:56 AM
Mon, Feb 8
52 °FClear.3 mph77%30.21 "Hg10 mi
2:56 AM52 °FClear.5 mph80%30.20 "Hg10 mi
1:56 AM57 °FClear.7 mph74%30.20 "Hg10 mi
12:56 AM56 °FClear.No wind75%30.19 "Hg10 mi
11:56 PM
Sun, Feb 7
57 °FClear.10 mph81%30.20 "Hg10 mi
10:56 PM61 °FClear.3 mph58%30.19 "Hg10 mi
9:56 PM57 °FClear.No wind74%30.20 "Hg10 mi
8:56 PM59 °FClear.No wind62%30.20 "Hg10 mi
7:56 PM60 °FClear.6 mph62%30.20 "Hg10 mi
6:56 PM62 °FClear.No wind60%30.19 "Hg10 mi
5:56 PM63 °FPassing clouds.No wind54%30.19 "Hg10 mi
4:56 PM64 °FSunny.6 mph58%30.17 "Hg10 mi
3:56 PM67 °FSunny.3 mph47%30.16 "Hg10 mi
2:56 PM66 °FPassing clouds.3 mph47%30.17 "Hg10 mi
1:56 PM67 °FPassing clouds.5 mph45%30.18 "Hg10 mi
12:56 PM66 °FPassing clouds.No wind43%30.21 "Hg10 mi
11:56 AM62 °FPassing clouds.No wind56%30.24 "Hg10 mi
10:56 AM58 °FPassing clouds.No wind75%30.27 "Hg10 mi
9:56 AM55 °FPassing clouds.5 mph83%30.28 "Hg10 mi
8:56 AM55 °FPassing clouds.No wind83%30.29 "Hg10 mi
7:56 AM50 °FPassing clouds.No wind86%30.28 "Hg10 mi
6:56 AM48 °FPassing clouds.No wind89%30.27 "Hg10 mi
5:56 AM50 °FClear.No wind89%30.26 "Hg10 mi
Weather by CustomWeather, © 2016

See weather overviewHow to use our weather pages